Regional Weather Roundup
Issued by NWS Wilmington, NC

Home | Current Version | Previous Version | Text Only | Print | Product List | Glossary On
Versions: 1 2 3 4 5 6 7 8 9 10 11 12 13 14 15 16 17 18 19 20 21 22 23 24 25 26 27 28 29 30 31 32 33 34 35 36 37 38 39 40 41 42 43 44 45 46 47 48 49
000
ASUS42 KILM 250610
RWRILM
RWRILM
REGIONAL HOURLY WEATHER ROUNDUP
NATIONAL WEATHER SERVICE WILMINGTON NC
100 AM EST THU DEC 25 2014

NOTE: "FAIR" INDICATES FEW OR NO CLOUDS BELOW 12,000 FEET WITH NO
SIGNIFICANT WEATHER AND/OR OBSTRUCTIONS TO VISIBILITY.

...............WFO WILMINGTON COUNTY WARNING AREA...............

......COASTAL NC AND SC COUNTIES......

CITY           SKY/WX    TMP DP  RH WIND       PRES   REMARKS
WILMINGTON     LGT RAIN  65  64  97 SW8       29.77R
SOUTHPORT      LGT RAIN  62  60  96 SW10G17   29.79R
N MYRTLE BEACH CLOUDY    59  57  93 S6        29.77F
MYRTLE BEACH   CLOUDY    66  63  88 SW8       29.79R

......INLAND NC AND SC COUNTIES.......

CITY           SKY/WX    TMP DP  RH WIND       PRES   REMARKS
LUMBERTON      CLOUDY    66  63  90 SW8       29.72F
ELIZABETHTOWN  LGT RAIN  66  64  94 SW9       29.74F
WHITEVILLE     CLOUDY    66  63  89 SW6       29.75S
FLORENCE       LGT RAIN  66  63  90 SW12      29.74R
DARLINGTON     CLOUDY    61  55  82 W14G22    29.76R

....................REST OF NORTH CAROLINA......................

.........EASTERN NC.........

CITY           SKY/WX    TMP DP  RH WIND       PRES   REMARKS
CAPE HATTERAS  CLOUDY    66  65  96 S16G23    29.73F FOG
JACKSONVILLE   CLOUDY    64  61  88 SW9       29.76R
MOREHEAD CITY  CLOUDY    64  63  96 SW13      29.75S
KENANSVILLE    LGT RAIN  65  63  91 SW8       29.75R
NEW BERN       CLOUDY    69  64  84 SW9G18    29.75R
ELIZABETH CITY CLOUDY    71  66  84 S14       29.68R

.........CENTRAL NC.........

CITY           SKY/WX    TMP DP  RH WIND       PRES   REMARKS
RALEIGH DURHAM LGT RAIN  64  60  87 SW12      29.70S
ROCKY MOUNT    CLOUDY    65  62  90 SW13      29.70F
ROANOKE RAPIDS NOT AVBL
FAYETTEVILLE   CLOUDY    66  63  90 SW10      29.72S
HOFFMAN        CLOUDY    61  59  94 W9G22     29.75R

.........WESTERN NC.........

CITY           SKY/WX    TMP DP  RH WIND       PRES   REMARKS
CHARLOTTE      CLOUDY    53  47  79 SW14G23   29.74R
GREENSBORO     CLOUDY    55  53  93 W6        29.68F
HICKORY        NOT AVBL
BOONE          NOT AVBL
ASHEVILLE      NOT AVBL

.....................REST OF SOUTH CAROLINA.....................

.........EASTERN SC.........

CITY           SKY/WX    TMP DP  RH WIND       PRES   REMARKS
CHARLESTON     CLOUDY    65  63  93 SW6       29.79F
BEAUFORT MCAS  CLOUDY    64  60  87 W13       29.85R
HILTON HEAD    CLOUDY    64  64 100 SW9       29.85R

.........CENTRAL SC.........

CITY           SKY/WX    TMP DP  RH WIND       PRES   REMARKS
COLUMBIA       CLOUDY    55  46  71 W14G23    29.82R
ORANGEBURG     LGT RAIN  60  54  80 W12       29.81R
SUMTER SHAW    CLOUDY    59  55  88 W9        29.76S

.........WESTERN SC.........

CITY           SKY/WX    TMP DP  RH WIND       PRES   REMARKS
GREENVILLE     NOT AVBL
ROCK HILL      CLOUDY    52  46  80 W15G22    29.76R
ANDERSON       CLOUDY    48  42  80 W13       29.84R
CLEMSON        NOT AVBL
GREENWOOD      CLOUDY    49  41  74 W12       29.83S


...................COASTAL AND OFFSHORE REPORTS..................

................LOCAL PIERS AND NC RESERVE................


STATION/POSITION TIME  SKY/WX   TEMP    WIND        PRES    VSBY
                                AIR SEA DIR/SP/G
                 (UTC)          (F)     (DEG/KT/KT) (MB)    (MI)
JOHNY MRCER PIER 0600            65 56  230/ 14/ 17 1007.2R
NC RESRV MASNBRO 0500            64     220/  5     1008.0S
OCEAN CREST PIER NOT AVBL
SPRINGMAID  PIER 0600            61 53  200/  8/  9 1008.0R


................COASTAL AND OFFSHORE BUOYS................


STATION/POSITION TIME  SKY/WX   TEMP    WIND        PRES    VSBY
                                AIR SEA DIR/SP/G
                 (UTC)          (F)     (DEG/KT/KT) (MB)    (MI)
DIMNDSHOAL 41025 0600            75                 1006.4F
WVE H/P(F/S)=  9/ 8

CAPE LOOKOUT     0500            66     180/ 19/ 20 1007.3F
ONSLOW BAY 41036 0600            65 60  210/ 14/ 16 1008.0R
WVE H/P(F/S)=  8/ 8 WND WVE H/P(F/S)=  5/ 5 SWL H/P/D(F/S/D)=  7/180/ 8

5 WRITEBCH 41038 NOT AVBL
MASONBORO  41110 0600               54                N/A
WVE H/P(F/S)=  4/ 8 WND WVE H/P(F/S)=  5/ 8

WILM HARBR 41108 0600               56                N/A
WVE H/P(F/S)=  5/ 8 WND WVE H/P(F/S)=  5/ 8

27WRITEBCH 41037 0500            63 62  230/ 10/ 14 1009.4F
FRYING PAN 41013 0600            71 72  240/ 23/ 29 1008.5R
WVE H/P(F/S)=  7/ 8 WND WVE H/P(F/S)=  5/ 7 SWL H/P/D(F/S/D)=  5/180/ 8

SUNST NRSH 41024 0500            56     240/  6/  8   N/A
CAPRS NRSH 41029 0500            59     240/ 16/ 17   N/A
EDISTO     41004 0600            71 73  250/ 25/ 31 1008.2S
WVE H/P(F/S)=  7/ 7 WND WVE H/P(F/S)=  5/ 6 SWL H/P/D(F/S/D)=  5/ 7



..........OFFSHORE BUOYS BEYOND 100 NM OFFSHORE...........
.....IN A TRIANGLE---HAT TO BERMUDA TO BAHAMAS TO HAT.....


STATION/POSITION TIME  SKY/WX   TEMP    WIND        PRES    VSBY
                                AIR SEA DIR/SP/G
                 (UTC)          (F)     (DEG/KT/KT) (MB)    (MI)
150E HAT   41001 NOT AVBL
W BERMUDA  41048 0522            72 72  160/ 14/ 16 1018.0F
WVE H/P(F/S)=  3/ 9 WND WVE H/P(F/S)=  2/ 5 SWL H/P/D(F/S/D)=  2/ 80/ 9

ATLANTIC S 41049 0549            75 77   50/  6/ 10 1021.0F
WVE H/P(F/S)=  4/10 WND WVE H/P(F/S)=  2/ 3 SWL H/P/D(F/S/D)=  3/ 60/10

E BAHAMAS  41046 0501            78 80   80/ 12/ 14 1020.2F
WVE H/P(F/S)=  4/ 8 WND WVE H/P(F/S)=  2/ 4 SWL H/P/D(F/S/D)=  3/110/ 8

NE BAHAMAS 41047 0537            77 78  180/ 16/ 17 1019.2F
WVE H/P(F/S)=  4/ 8 WND WVE H/P(F/S)=  3/ 6 SWL H/P/D(F/S/D)=  3/130/ 8

120E CANVRL41010 0600            78 76  200/ 21/ 25 1013.3S
WVE H/P(F/S)=  7/ 6 WND WVE H/P(F/S)=  7/ 6 SWL H/P/D(F/S/D)=  2/150/10


END


USA.gov is the U.S. government's official web portal to all federal, state and local government web resources and services.